{"data":{"norad_id":59030,"epoch":"2026-09-20T14:14:57.077088Z","epoch_age_seconds":147622,"freshness":"FRESH","line1":"1 59030U 24038H   26263.59371617  .00001436  00000+0  61675-4 0  9994","line2":"2 59030  43.0084   6.5271 0001656 286.6054  73.4615 15.27601406144566","mean_motion":15.27601406,"eccentricity":0.0001656,"inclination_deg":43.0084,"raan_deg":6.5271,"arg_perigee_deg":286.6054,"mean_anomaly_deg":73.4615,"bstar":6.1675e-5,"rev_number":14456,"period_min":94.265427770888,"perigee_km":481.84879772025,"apogee_km":484.12120132649,"semimajor_km":6861.1219995234,"source":"CELESTRAK","updated_at":"2026-09-21T09:00:34.029264Z"}}